Volver al catálogo

ARIANE 2 DEB

ActivoHEO
NORAD 40788·DEBRIS·🇫🇷 France

Lanzado Jan 27, 1989 desde Guiana Space Centre

Loading…

Próximos Pases (próximas 24 horas)

TLE

ActualizadoSource: Space-Track

Época: Sep 7, 2026, 21:08 UTC

1 40788U 89006CH  26250.88122706  .00000178  00000-0  61082-3 0  9995
2 40788   8.6076 167.0857 6235307 223.1527  66.2487  3.54700918146773

Sigue ARIANE 2 DEB en tiempo real con AllMySat

Download on the App Store